tititudorancea.com
Station Historical Data
Daily Summary for March 10, 2019 Units:  Metric    English   Both
« Previous Day
Next Day »
Daily Weekly Monthly Yearly Custom
  High: Low: Average:
Temperature: -17.8 °C 11.4 °C 15.4 °C
Dew Point: -17.8 °C 7.8 °C 9.7 °C
Humidity: Humidity % 42 % 70 %
Wind Speed: 0 km/h 0 km/h 8.5 km/h
Wind Gust: 0 km/h - -
Wind:- - WSW
Pressure: 0 hPa 1009 hPa -
Precipitation: 2.03 mm    
Historical Graphs
 
 
Ararat weather Find more about Weather in Ararat, AU


 



 


Tabular Data for March 10, 2019
Time Temperature Dew Point Pressure Wind Wind Speed Wind Gust Humidity Rainfall Rate (Hourly)
-17.8 °C -17.8 °C 0 hPa Calm     Humidity % 0 mm
00:04 17.1 °C 9.5 °C 1014.1 hPa Calm     61 % 0 mm
00:09 16.9 °C 9.6 °C 1014.1 hPa Calm     62 % 0 mm
00:14 16.8 °C 9.5 °C 1013.8 hPa Calm     62 % 0 mm
00:19 16.6 °C 9.6 °C 1013.8 hPa Calm     63 % 0 mm
00:24 16.4 °C 9.3 °C 1013.8 hPa Calm     63 % 0 mm
00:29 16.2 °C 9.4 °C 1013.8 hPa Calm     64 % 0 mm
00:34 16 °C 9.2 °C 1013.8 hPa Calm     64 % 0 mm
00:39 15.8 °C 9.2 °C 1013.8 hPa Calm     65 % 0 mm
00:44 15.6 °C 9 °C 1013.4 hPa Calm     65 % 0 mm
00:49 15.2 °C 9.1 °C 1013.4 hPa Calm     67 % 0 mm
00:54 15.1 °C 9.2 °C 1013.4 hPa Calm     68 % 0 mm
00:59 14.9 °C 9.1 °C 1013.4 hPa Calm     68 % 0 mm
01:04 14.7 °C 8.9 °C 1013.4 hPa Calm     68 % 0 mm
01:09 14.5 °C 8.9 °C 1013.4 hPa Calm     69 % 0 mm
01:14 14.4 °C 8.8 °C 1013.4 hPa Calm     69 % 0 mm
01:19 14.2 °C 8.8 °C 1013.1 hPa Calm     70 % 0 mm
01:24 14.1 °C 8.7 °C 1013.1 hPa Calm     70 % 0 mm
01:29 13.9 °C 8.8 °C 1013.1 hPa Calm     71 % 0 mm
01:34 13.8 °C 8.9 °C 1013.1 hPa Calm     72 % 0 mm
01:39 13.8 °C 8.8 °C 1013.1 hPa Calm     72 % 0 mm
01:44 13.7 °C 8.8 °C 1013.1 hPa Calm     72 % 0 mm
01:49 13.7 °C 8.7 °C 1012.8 hPa Calm     72 % 0 mm
01:54 13.6 °C 8.7 °C 1012.8 hPa Calm     72 % 0 mm
01:59 13.5 °C 8.6 °C 1012.8 hPa Calm     72 % 0 mm
02:04 13.4 °C 8.4 °C 1012.8 hPa Calm     72 % 0 mm
02:09 13.2 °C 8.4 °C 1012.8 hPa Calm     73 % 0 mm
02:14 13.1 °C 8.3 °C 1012.8 hPa Calm     73 % 0 mm
02:19 12.9 °C 8.2 °C 1012.8 hPa Calm     73 % 0 mm
02:24 12.8 °C 8.1 °C 1012.4 hPa Calm     73 % 0 mm
02:29 12.7 °C 8.2 °C 1012.4 hPa Calm     74 % 0 mm
02:34 12.6 °C 8.1 °C 1012.4 hPa Calm     74 % 0 mm
02:39 12.5 °C 8 °C 1012.1 hPa Calm     74 % 0 mm
02:44 12.3 °C 7.8 °C 1012.1 hPa Calm     74 % 0 mm
02:49 12.2 °C 7.9 °C 1012.1 hPa Calm     75 % 0 mm
02:54 12.1 °C 8 °C 1011.7 hPa Calm     76 % 0 mm
02:59 12 °C 7.9 °C 1011.7 hPa Calm     76 % 0 mm
03:04 11.9 °C 8 °C 1011.7 hPa Calm     77 % 0 mm
03:09 11.8 °C 7.9 °C 1011.7 hPa Calm     77 % 0 mm
03:14 11.7 °C 7.9 °C 1011.7 hPa Calm     78 % 0 mm
03:19 11.5 °C 7.8 °C 1011.4 hPa Calm     78 % 0 mm
03:24 11.4 °C 7.9 °C 1011.4 hPa Calm     79 % 0 mm
03:29 11.4 °C 8.1 °C 1011.4 hPa Calm     80 % 0 mm
03:34 11.5 °C 8.3 °C 1011.4 hPa Calm     81 % 0 mm
03:39 11.6 °C 8.4 °C 1011.4 hPa Calm     81 % 0 mm
03:44 11.6 °C 8.4 °C 1011.4 hPa Calm     81 % 0 mm
03:49 11.6 °C 8.3 °C 1011.4 hPa Calm     80 % 0 mm
03:54 11.5 °C 8.2 °C 1011.4 hPa Calm     80 % 0 mm
03:59 11.4 °C 8.1 °C 1011.4 hPa Calm     80 % 0 mm
04:04 11.4 °C 8.2 °C 1011.4 hPa Calm     81 % 0 mm
04:09 11.4 °C 8.2 °C 1011.4 hPa Calm     81 % 0 mm
04:14 11.4 °C 8.4 °C 1011.4 hPa Calm     82 % 0 mm
04:19 11.4 °C 8.5 °C 1011.4 hPa Calm     82 % 0 mm
04:24 11.5 °C 8.6 °C 1011.4 hPa Calm     82 % 0 mm
04:29 11.5 °C 8.6 °C 1011.4 hPa Calm     82 % 0 mm
04:34 11.6 °C 8.6 °C 1011.1 hPa Calm     82 % 0 mm
04:39 11.5 °C 8.3 °C 1011.1 hPa Calm     81 % 0 mm
04:44 11.5 °C 8.6 °C 1011.1 hPa Calm     82 % 0 mm
04:49 11.6 °C 8.7 °C 1011.1 hPa Calm     82 % 0 mm
04:54 11.7 °C 8.5 °C 1011.1 hPa Calm     81 % 0 mm
04:59 11.7 °C 8.3 °C 1011.1 hPa Calm     80 % 0 mm
05:04 11.6 °C 8.3 °C 1011.1 hPa Calm     80 % 0 mm
05:09 11.7 °C 8.5 °C 1011.1 hPa Calm     81 % 0 mm
05:14 11.7 °C 8.6 °C 1011.1 hPa Calm     81 % 0 mm
05:19 11.7 °C 8.6 °C 1010.7 hPa Calm     81 % 0 mm
05:24 11.7 °C 8.4 °C 1011.1 hPa Calm     80 % 0 mm
05:29 11.7 °C 8.6 °C 1011.1 hPa Calm     81 % 0 mm
05:34 11.8 °C 8.6 °C 1011.1 hPa Calm     81 % 0 mm
05:39 11.9 °C 8.8 °C 1010.7 hPa Calm     81 % 0 mm
05:44 12 °C 8.8 °C 1010.7 hPa Calm     81 % 0 mm
05:49 12.2 °C 9 °C 1010.7 hPa Calm     81 % 0 mm
05:54 12.6 °C 9.4 °C 1010.7 hPa SSW 6.4 km/h 5.1 km/h 81 % 0 mm
05:59 13 °C 9.4 °C 1010.7 hPa SSW 6.4 km/h 5.3 km/h 79 % 0 mm
06:04 13.4 °C 9.4 °C 1010.7 hPa SSW 5.6 km/h 3.5 km/h 77 % 0 mm
06:09 13.6 °C 9.3 °C 1010.7 hPa SSW 5.6 km/h 4.3 km/h 75 % 0 mm
06:14 13.7 °C 9.2 °C 1010.7 hPa SSW 3.7 km/h 1.8 km/h 74 % 0 mm
06:19 13.8 °C 9 °C 1010.7 hPa SSW 1.9 km/h   73 % 0 mm
06:24 13.9 °C 9.3 °C 1010.7 hPa SSW 5.6 km/h 4 km/h 74 % 0 mm
06:29 14.7 °C 9.9 °C 1010.7 hPa SSW 9.3 km/h 6.6 km/h 73 % 0 mm
06:34 15.6 °C 9.7 °C 1010.7 hPa SSW 7.4 km/h 4.5 km/h 68 % 0 mm
06:39 15.9 °C 9.6 °C 1010.7 hPa SSW 9.7 km/h 4.5 km/h 66 % 0 mm
06:44 16.2 °C 9.6 °C 1010.7 hPa SSW 7.4 km/h 5.8 km/h 65 % 0 mm
06:49 16.2 °C 9.6 °C 1010.7 hPa SSW 7.4 km/h 4.5 km/h 65 % 0 mm
06:54 16.2 °C 9.4 °C 1010.7 hPa SSW 7.4 km/h 5.6 km/h 64 % 0 mm
06:59 16.3 °C 9.5 °C 1010.7 hPa SSW 9.3 km/h 6.6 km/h 64 % 0 mm
07:04 16.3 °C 9.5 °C 1010.7 hPa SSW 7.4 km/h 5.6 km/h 64 % 0 mm
07:09 16.3 °C 9.4 °C 1010.7 hPa SSW 9.3 km/h 5.6 km/h 64 % 0 mm
07:14 16.3 °C 9.5 °C 1010.7 hPa North 9.7 km/h 4.8 km/h 64 % 0 mm
07:19 16.2 °C 9.4 °C 1010.7 hPa SSW 9.3 km/h 5.6 km/h 64 % 0 mm
07:24 16.1 °C 9.3 °C 1010.7 hPa SSW 5.6 km/h 4.2 km/h 64 % 0 mm
07:29 16 °C 9.2 °C 1010.7 hPa North 7.4 km/h 3.9 km/h 64 % 0 mm
07:34 15.9 °C 9.1 °C 1010.7 hPa SSW 7.4 km/h 5.6 km/h 64 % 0 mm
07:39 15.8 °C 9.2 °C 1010.7 hPa SSW 9.3 km/h 6.3 km/h 65 % 0 mm
07:44 15.8 °C 9.2 °C 1010.7 hPa SSW 9.3 km/h 5.8 km/h 65 % 0 mm
07:49 15.8 °C 9.2 °C 1010.7 hPa SW 13 km/h 6.9 km/h 65 % 0 mm
07:54 15.8 °C 9.2 °C 1011.1 hPa SW 13 km/h 8.4 km/h 65 % 0 mm
07:59 15.8 °C 9.2 °C 1010.7 hPa WSW 11.1 km/h 9.2 km/h 65 % 0 mm
08:04 15.8 °C 9.1 °C 1010.7 hPa North 16.7 km/h 7.1 km/h 64 % 0 mm
08:09 15.8 °C 9.3 °C 1010.7 hPa West 9.7 km/h 8.7 km/h 65 % 0 mm
08:14 15.8 °C 9.2 °C 1010.7 hPa West 13 km/h 8.7 km/h 65 % 0 mm
08:19 15.8 °C 9.2 °C 1010.7 hPa West 9.3 km/h 6.3 km/h 65 % 0 mm
08:24 15.8 °C 9.2 °C 1010.7 hPa West 9.7 km/h 6.1 km/h 65 % 0 mm
08:29 15.8 °C 9.4 °C 1011.1 hPa West 9.7 km/h 6.8 km/h 66 % 0 mm
08:34 15.8 °C 9.5 °C 1011.1 hPa West 9.3 km/h 7.7 km/h 66 % 0 mm
08:39 15.9 °C 9.6 °C 1011.1 hPa West 9.3 km/h 6.4 km/h 66 % 0 mm
08:44 16.2 °C 9.8 °C 1011.1 hPa West 5.6 km/h 5.6 km/h 66 % 0 mm
08:49 16.4 °C 10.1 °C 1011.1 hPa West 13 km/h 6.8 km/h 66 % 0 mm
08:54 16.6 °C 10.2 °C 1011.1 hPa North 9.3 km/h 6.8 km/h 66 % 0 mm
08:59 16.7 °C 10.3 °C 1011.1 hPa West 9.3 km/h 5.3 km/h 66 % 0 mm
09:04 16.8 °C 10.4 °C 1011.1 hPa WNW 14.8 km/h 10.1 km/h 66 % 0 mm
09:09 16.8 °C 10.4 °C 1010.7 hPa WNW 13 km/h 11.1 km/h 66 % 0 mm
09:14 16.8 °C 10.4 °C 1011.1 hPa WNW 14.8 km/h 10.1 km/h 66 % 0 mm
09:19 16.9 °C 10.6 °C 1011.1 hPa WNW 13 km/h 9 km/h 66 % 0 mm
09:24 17.1 °C 10.9 °C 1011.1 hPa WNW 9.3 km/h 5 km/h 67 % 0 mm
09:29 17.3 °C 11.1 °C 1010.7 hPa WNW 14.8 km/h 10.3 km/h 67 % 0 mm
09:34 17.4 °C 11.2 °C 1010.7 hPa WNW 9.7 km/h 8.7 km/h 67 % 0 mm
09:39 17.7 °C 11.7 °C 1010.4 hPa WNW 16.7 km/h 8.7 km/h 68 % 0 mm
09:44 17.9 °C 11.7 °C 1010.4 hPa NW 13 km/h 9.2 km/h 67 % 0 mm
09:49 18.1 °C 11.7 °C 1010.4 hPa North 20.4 km/h 11.7 km/h 66 % 0 mm
09:54 18.4 °C 11.7 °C 1010.4 hPa North 16.7 km/h 11.7 km/h 65 % 0 mm
09:59 18.6 °C 11.4 °C 1010.4 hPa NNW 18.5 km/h 10.5 km/h 63 % 0 mm
10:04 18.8 °C 11.6 °C 1010.4 hPa NNW 18.5 km/h 11.1 km/h 63 % 0 mm
10:09 19.2 °C 11.3 °C 1010.4 hPa North 18.5 km/h 10.3 km/h 60 % 0 mm
10:14 19.4 °C 10.9 °C 1010.4 hPa NNW 16.7 km/h 8 km/h 58 % 0 mm
10:19 19.9 °C 11.4 °C 1010.4 hPa NNW 9.7 km/h 8.7 km/h 58 % 0 mm
10:24 20.4 °C 10.5 °C 1010.4 hPa NNW 13 km/h 9.3 km/h 53 % 0 mm
10:29 20.6 °C 10.7 °C 1010.4 hPa NNW 13 km/h 3.7 km/h 53 % 0 mm
10:34 20.6 °C 10.1 °C 1010.4 hPa NNW 7.4 km/h 4.2 km/h 51 % 0 mm
10:39 20.6 °C 10.4 °C 1010.4 hPa North 5.6 km/h 3.5 km/h 52 % 0 mm
10:44 20.8 °C 9.9 °C 1010.4 hPa North 7.4 km/h 5 km/h 50 % 0 mm
10:49 20.9 °C 9.4 °C 1010.4 hPa NNW 9.3 km/h 5 km/h 48 % 0 mm
10:54 21.1 °C 9.3 °C 1010.7 hPa North 13 km/h 8.5 km/h 47 % 0 mm
10:55 21.1 °C 9.3 °C 1010.4 hPa NNW 13 km/h 9.2 km/h 47 % 0 mm
11:04 21.1 °C 9.3 °C 1010.4 hPa NNW 13 km/h 6.4 km/h 47 % 0 mm
11:09 21.2 °C 9.4 °C 1010.4 hPa NNW 11.3 km/h 3.2 km/h 47 % 0 mm
11:14 21.2 °C 9.4 °C 1010.4 hPa NNW 5.6 km/h 2.3 km/h 47 % 0 mm
11:19 21.2 °C 9.4 °C 1010.7 hPa NNW 5.6 km/h 3.4 km/h 47 % 0 mm
11:24 21.3 °C 9.2 °C 1011.1 hPa NNW 5.6 km/h 4.7 km/h 46 % 0 mm
11:29 21.4 °C 9.7 °C 1011.4 hPa North 5.6 km/h 4.3 km/h 47 % 0 mm
11:34 21.8 °C 8.3 °C 1011.4 hPa West 18.5 km/h 11.1 km/h 42 % 0 mm
11:39 21.3 °C 10.4 °C 1011.7 hPa SSW 18.5 km/h 16.4 km/h 50 % 0 mm
11:44 20.8 °C 10.6 °C 1011.4 hPa North 11.1 km/h 10.9 km/h 52 % 0 mm
11:49 20.6 °C 10.1 °C 1011.7 hPa SW 25.9 km/h 17.7 km/h 51 % 0 mm
11:54 20.5 °C 9.7 °C 1011.7 hPa SSW 16.7 km/h 12.9 km/h 50 % 0 mm
11:59 20.5 °C 9.4 °C 1012.1 hPa SSW 18.5 km/h 10.3 km/h 49 % 0 mm
12:04 20.4 °C 9.6 °C 1012.1 hPa SW 22.2 km/h 12.9 km/h 50 % 0 mm
12:09 20.1 °C 9.1 °C 1012.4 hPa SW 18.5 km/h 12.4 km/h 49 % 0 mm
12:14 19.6 °C 10.1 °C 1012.8 hPa SSW 20.4 km/h 18 km/h 54 % 0 mm
12:19 19.1 °C 10.4 °C 1013.1 hPa SW 31.5 km/h 21.6 km/h 57 % 0 mm
12:24 18.9 °C 10.5 °C 1013.4 hPa North 27.4 km/h 15.4 km/h 58 % 0 mm
12:29 18.2 °C 9.3 °C 1013.4 hPa WSW 40.7 km/h 24.6 km/h 56 % 0 mm
12:34 17.5 °C 9.7 °C 1013.8 hPa WSW 31.5 km/h 31.5 km/h 60 % 0 mm
12:39 17.3 °C 10.2 °C 1013.8 hPa WSW 29 km/h 19.5 km/h 63 % 0 mm
12:44 16.8 °C 10.8 °C 1013.8 hPa West 31.5 km/h 23.8 km/h 68 % 0 mm
12:49 16.3 °C 11.1 °C 1013.8 hPa WSW 25.9 km/h 15.6 km/h 71 % 0 mm
12:54 15.9 °C 11.1 °C 1013.4 hPa WSW 24.1 km/h 16.3 km/h 73 % 0.25 mm
12:59 15.6 °C 11.2 °C 1013.4 hPa WSW 22.5 km/h 12.1 km/h 75 % 0.25 mm
13:04 15 °C 10 °C 1013.1 hPa SSW 24.1 km/h 10.6 km/h 72 % 0.51 mm
13:09 14.7 °C 10.1 °C 1013.1 hPa SW 14.5 km/h 10.1 km/h 74 % 0.51 mm
13:14 14.6 °C 10.4 °C 1012.8 hPa SW 11.1 km/h 7.9 km/h 76 % 0.51 mm
13:19 14.5 °C 10.7 °C 1012.8 hPa SW 5.6 km/h 2.1 km/h 78 % 0.51 mm
13:24 14.4 °C 10.8 °C 1012.8 hPa SW 6.4 km/h 2.3 km/h 79 % 0.51 mm
13:29 14.3 °C 10.9 °C 1011.7 hPa SW 5.6 km/h 6 km/h 80 % 0.76 mm
13:34 14.2 °C 11.2 °C 1011.4 hPa North 6.4 km/h 6.3 km/h 82 % 1.02 mm
13:39 14.1 °C 11.3 °C 1011.1 hPa East 9.3 km/h 6.1 km/h 83 % 1.02 mm
13:44 13.9 °C 11.1 °C 1011.1 hPa East 6.4 km/h 5.3 km/h 83 % 1.27 mm
13:49 14 °C 11.3 °C 1010.4 hPa ENE 9.7 km/h 7.4 km/h 84 % 1.52 mm
13:54 13.9 °C 11.4 °C 1010.4 hPa ENE 7.4 km/h 6 km/h 85 % 1.27 mm
13:59 13.8 °C 11.3 °C 1010 hPa ENE 5.6 km/h 4.5 km/h 85 % 1.52 mm
14:04 13.7 °C 11.2 °C 1009 hPa NE 13 km/h 8 km/h 85 % 1.52 mm
14:09 13.6 °C 11.3 °C 1009.7 hPa NE 13 km/h 5.3 km/h 86 % 1.52 mm
14:14 13.6 °C 11.3 °C 1009.7 hPa NE 16.7 km/h 11.9 km/h 86 % 1.52 mm
14:19 13.7 °C 11.4 °C 1009.7 hPa NNE 16.7 km/h 9.8 km/h 86 % 1.52 mm
14:24 13.9 °C 11.7 °C 1009.7 hPa NNE 11.1 km/h 9 km/h 86 % 1.52 mm
14:29 14.1 °C 11.8 °C 1010 hPa NNE 11.1 km/h 5 km/h 86 % 1.27 mm
14:34 14.4 °C 12.1 °C 1010 hPa NNE 6.4 km/h 5.8 km/h 86 % 1.02 mm
14:39 14.7 °C 12.3 °C 1009.7 hPa North 17.7 km/h 8.2 km/h 86 % 1.02 mm
14:44 14.8 °C 12.5 °C 1009.7 hPa North 14.8 km/h 9.2 km/h 86 % 0.76 mm
14:49 15.2 °C 12.8 °C 1009.4 hPa North 13 km/h 9.8 km/h 86 % 0.51 mm
14:54 15.6 °C 12.9 °C 1009.7 hPa NNW 13 km/h 9.2 km/h 84 % 0.51 mm
14:59 15.8 °C 12.6 °C 1009.4 hPa North 20.4 km/h 9.2 km/h 81 % 0.51 mm
15:04 15.9 °C 12.5 °C 1009.7 hPa NNW 22.2 km/h 13.5 km/h 80 % 0.25 mm
15:09 16.1 °C 12.6 °C 1009.7 hPa North 16.1 km/h 12.1 km/h 80 % 0.25 mm
15:14 16.3 °C 12.7 °C 1009.7 hPa North 18.5 km/h 9.5 km/h 79 % 0 mm
15:19 16.7 °C 13.1 °C 1009.7 hPa North 14.8 km/h 11.6 km/h 79 % 0 mm
15:24 16.9 °C 12.6 °C 1009.7 hPa NW 18.5 km/h 14.8 km/h 76 % 0 mm
15:29 16.9 °C 12.5 °C 1009.7 hPa NW 18.5 km/h 10.9 km/h 75 % 0 mm
15:34 17.1 °C 12.6 °C 1009.7 hPa North 14.8 km/h 13.8 km/h 75 % 0 mm
15:39 17.2 °C 12.9 °C 1009.7 hPa NNW 16.7 km/h 10.5 km/h 76 % 0 mm
15:44 17.8 °C 13.3 °C 1009.7 hPa NNW 14.5 km/h 7.1 km/h 75 % 0 mm
15:49 18.3 °C 13.2 °C 1009.7 hPa NW 18.5 km/h 12.7 km/h 72 % 0 mm
15:54 18.5 °C 13.3 °C 1009.7 hPa North 14.8 km/h 9.3 km/h 72 % 0 mm
15:59 18.9 °C 13.6 °C 1009.7 hPa NW 18.5 km/h 9.8 km/h 71 % 0 mm
16:04 19.1 °C 13.1 °C 1009.7 hPa NW 19.3 km/h 14.2 km/h 68 % 0 mm
16:09 19.3 °C 13.2 °C 1009.7 hPa NW 11.1 km/h 4.2 km/h 68 % 0 mm
16:14 19.3 °C 13 °C 1009.7 hPa North 11.1 km/h 7.9 km/h 67 % 0 mm
16:17 19.3 °C 13 °C 1009.7 hPa NW 11.1 km/h 9.3 km/h 67 % 0 mm
Ararat Weather
Compliments of Weather Underground - 2 mb
Click here to send mail.


ABOUT

Live weather data from Ararat, Victoria, Australia, 3377
Data uploaded from Cumulus every 5 minutes to Weather Underground.
This site then downloads the raw data for formatting and display.
Metric and imperial data can be displayed. Graphs and historical data available.
Includes Sun and Moon times and rain image live from BOM.

Check out Ararat Weather on Facebook, Twitter and Google +

Help support ongoing costs by checking out the ads





Follow @AraratWeather